• In Russia
  • List of Countries
  • For 7 days
  • Water Temperature
  • Weather Map
  • Weather Widgets
  • user-avatar
    Login

    Hourly Weather Hobart

    Today, 29 May, Friday

    Time Temperature Precipitation Wind Pressure Humidity
    00:00 +10°C° 0 mm 3 mps 750 mmHg 80%
    01:00 +10°C° 0 mm 3 mps 750 mmHg 80%
    02:00 +10°C° 0 mm 3 mps 750 mmHg 82%
    03:00 +10°C° 0 mm 3 mps 750 mmHg 83%
    04:00 +10°C° 0 mm 2 mps 750 mmHg 83%
    05:00 +12°C° 0 mm 2 mps 750 mmHg 84%
    06:00 +12°C° 0 mm 2 mps 750 mmHg 85%
    07:00 +12°C° 0 mm 2 mps 750 mmHg 86%
    08:00 +13°C° 0 mm 2 mps 751 mmHg 83%
    09:00 +14°C° 0 mm 2 mps 751 mmHg 80%
    10:00 +13°C° 0 mm 3 mps 751 mmHg 75%
    11:00 +14°C° 0 mm 3 mps 751 mmHg 72%
    12:00 +16°C° 0 mm 3 mps 750 mmHg 69%
    13:00 +16°C° 0 mm 3 mps 750 mmHg 66%
    14:00 +16°C° 0 mm 3 mps 750 mmHg 67%
    15:00 +14°C° 0 mm 3 mps 750 mmHg 67%
    16:00 +15°C° 0 mm 2 mps 750 mmHg 68%
    17:00 +14°C° 0 mm 2 mps 750 mmHg 72%
    18:00 +12°C° 0 mm 2 mps 751 mmHg 77%
    19:00 +10°C° 0 mm 2 mps 751 mmHg 81%
    20:00 +10°C° 0 mm 2 mps 751 mmHg 82%
    21:00 +9°C° 0 mm 2 mps 751 mmHg 83%
    22:00 +9°C° 0 mm 3 mps 751 mmHg 84%
    23:00 +8°C° 0 mm 3 mps 751 mmHg 84%

    Tomorrow, 30 May, Saturday

    Time Temperature Precipitation Wind Pressure Humidity
    00:00 +8°C° 0 mm 3 mps 750 mmHg 84%
    01:00 +8°C° 0 mm 3 mps 750 mmHg 84%
    02:00 +8°C° 0 mm 3 mps 750 mmHg 85%
    03:00 +7°C° 0 mm 3 mps 750 mmHg 86%
    04:00 +7°C° 0 mm 3 mps 750 mmHg 87%
    05:00 +7°C° 0 mm 3 mps 749 mmHg 88%
    06:00 +7°C° 0 mm 3 mps 749 mmHg 88%
    07:00 +7°C° 0 mm 3 mps 749 mmHg 89%
    08:00 +8°C° 0 mm 3 mps 749 mmHg 81%
    09:00 +10°C° 0 mm 3 mps 749 mmHg 74%
    10:00 +12°C° 0 mm 4 mps 749 mmHg 66%
    11:00 +13°C° 0 mm 4 mps 748 mmHg 62%
    12:00 +14°C° 0 mm 5 mps 747 mmHg 57%
    13:00 +15°C° 0 mm 5 mps 746 mmHg 53%
    14:00 +14°C° 0 mm 5 mps 746 mmHg 56%
    15:00 +14°C° 0 mm 5 mps 745 mmHg 60%
    16:00 +13°C° 0 mm 5 mps 744 mmHg 63%
    17:00 +12°C° 0 mm 5 mps 744 mmHg 66%
    18:00 +10°C° 0 mm 5 mps 743 mmHg 70%
    19:00 +9°C° 0 mm 5 mps 743 mmHg 74%
    20:00 +9°C° 0 mm 5 mps 742 mmHg 73%
    21:00 +9°C° 0 mm 5 mps 742 mmHg 72%
    22:00 +9°C° 0 mm 5 mps 742 mmHg 71%
    23:00 +9°C° 0 mm 5 mps 741 mmHg 71%

    Day after tomorrow, 31 May, Sunday

    Time Temperature Precipitation Wind Pressure Humidity
    00:00 +10°C° 0 mm 4 mps 741 mmHg 72%
    01:00 +11°C° 0 mm 4 mps 740 mmHg 72%
    02:00 +10°C° 0 mm 3 mps 740 mmHg 75%
    03:00 +10°C° 0 mm 3 mps 740 mmHg 78%
    04:00 +10°C° 0 mm 3 mps 740 mmHg 81%
    05:00 +9°C° 0 mm 2 mps 740 mmHg 83%
    06:00 +9°C° 0 mm 2 mps 740 mmHg 85%
    07:00 +8°C° 0 mm 2 mps 740 mmHg 88%
    08:00 +9°C° 0 mm 2 mps 740 mmHg 82%
    09:00 +10°C° 0 mm 3 mps 741 mmHg 77%
    10:00 +11°C° 0 mm 3 mps 741 mmHg 71%
    11:00 +12°C° 0 mm 3 mps 740 mmHg 65%
    12:00 +13°C° 0 mm 3 mps 740 mmHg 59%
    13:00 +14°C° 0 mm 3 mps 739 mmHg 53%
    14:00 +13°C° 0 mm 3 mps 739 mmHg 55%
    15:00 +14°C° 0 mm 2 mps 739 mmHg 58%
    16:00 +13°C° 0 mm 2 mps 739 mmHg 61%
    17:00 +12°C° 0 mm 2 mps 739 mmHg 66%
    18:00 +9°C° 0 mm 2 mps 739 mmHg 71%
    19:00 +8°C° 0 mm 2 mps 739 mmHg 76%
    20:00 +8°C° 0 mm 2 mps 738 mmHg 76%
    21:00 +8°C° 0 mm 3 mps 738 mmHg 76%
    22:00 +8°C° 0 mm 3 mps 738 mmHg 76%
    23:00 +8°C° 0 mm 3 mps 737 mmHg 77%

    1 June, Monday

    Time Temperature Precipitation Wind Pressure Humidity
    00:00 +7°C° 0 mm 3 mps 736 mmHg 79%
    01:00 +7°C° 0 mm 3 mps 736 mmHg 80%
    02:00 +7°C° 0 mm 3 mps 735 mmHg 82%
    03:00 +7°C° 0 mm 3 mps 734 mmHg 85%
    04:00 +7°C° 0 mm 3 mps 734 mmHg 87%
    05:00 +7°C° 0 mm 3 mps 733 mmHg 87%
    06:00 +7°C° 0 mm 3 mps 733 mmHg 86%
    07:00 +8°C° 0 mm 2 mps 733 mmHg 86%
    08:00 +8°C° 0.3 mm 3 mps 734 mmHg 86%
    09:00 +7°C° 0.3 mm 4 mps 734 mmHg 87%
    10:00 +8°C° 0.3 mm 5 mps 735 mmHg 87%
    11:00 +7°C° 1 mm 5 mps 735 mmHg 87%
    12:00 +6°C° 1 mm 5 mps 736 mmHg 88%
    13:00 +6°C° 1 mm 5 mps 737 mmHg 88%
    14:00 +5°C° 0 mm 5 mps 737 mmHg 85%
    15:00 +5°C° 0 mm 5 mps 738 mmHg 82%
    16:00 +5°C° 0 mm 4 mps 739 mmHg 79%
    17:00 +4°C° 0 mm 4 mps 740 mmHg 80%
    18:00 +3°C° 0 mm 4 mps 740 mmHg 82%
    19:00 +2°C° 0 mm 3 mps 741 mmHg 83%
    20:00 +2°C° 0 mm 3 mps 741 mmHg 84%
    21:00 +2°C° 0 mm 3 mps 741 mmHg 85%
    22:00 +3°C° 0 mm 3 mps 741 mmHg 85%
    23:00 +4°C° 0 mm 3 mps 741 mmHg 86%

    2 June, Tuesday

    Time Temperature Precipitation Wind Pressure Humidity
    00:00 +5°C° 0 mm 3 mps 741 mmHg 86%
    01:00 +5°C° 0 mm 3 mps 741 mmHg 86%
    02:00 +7°C° 0.1 mm 3 mps 741 mmHg 86%
    03:00 +6°C° 0.1 mm 4 mps 741 mmHg 86%
    04:00 +7°C° 0.1 mm 4 mps 741 mmHg 86%
    05:00 +6°C° 0 mm 4 mps 742 mmHg 86%
    06:00 +6°C° 0 mm 4 mps 743 mmHg 86%
    07:00 +7°C° 0 mm 3 mps 744 mmHg 87%
    08:00 +7°C° 0 mm 4 mps 744 mmHg 83%
    09:00 +7°C° 0 mm 4 mps 745 mmHg 79%
    10:00 +8°C° 0 mm 4 mps 745 mmHg 75%
    11:00 +10°C° 0 mm 4 mps 745 mmHg 73%
    12:00 +10°C° 0 mm 4 mps 745 mmHg 72%
    13:00 +11°C° 0 mm 4 mps 745 mmHg 71%
    14:00 +11°C° 0 mm 4 mps 745 mmHg 73%
    15:00 +10°C° 0 mm 4 mps 744 mmHg 75%
    16:00 +10°C° 0 mm 4 mps 744 mmHg 77%
    17:00 +10°C° 0 mm 4 mps 744 mmHg 79%
    18:00 +9°C° 0 mm 5 mps 744 mmHg 80%
    19:00 +9°C° 0 mm 5 mps 745 mmHg 82%
    20:00 +9°C° 0 mm 5 mps 745 mmHg 80%
    21:00 +8°C° 0 mm 6 mps 745 mmHg 77%
    22:00 +8°C° 0 mm 6 mps 745 mmHg 75%
    23:00 +8°C° 0.1 mm 6 mps 746 mmHg 75%

    3 June, Wednesday

    Time Temperature Precipitation Wind Pressure Humidity
    00:00 +7°C° 0.1 mm 6 mps 746 mmHg 75%
    01:00 +7°C° 0.1 mm 6 mps 746 mmHg 75%
    02:00 +7°C° 0 mm 6 mps 747 mmHg 75%
    03:00 +5°C° 0 mm 6 mps 747 mmHg 75%
    04:00 +5°C° 0 mm 6 mps 748 mmHg 75%
    05:00 +5°C° 0 mm 6 mps 749 mmHg 75%
    06:00 +5°C° 0 mm 6 mps 750 mmHg 75%
    07:00 +5°C° 0 mm 6 mps 750 mmHg 75%
    08:00 +7°C° 0 mm 6 mps 751 mmHg 72%
    09:00 +7°C° 0 mm 6 mps 752 mmHg 68%
    10:00 +8°C° 0 mm 6 mps 752 mmHg 65%
    11:00 +8°C° 0 mm 5 mps 753 mmHg 62%
    12:00 +9°C° 0 mm 5 mps 753 mmHg 59%
    13:00 +10°C° 0 mm 4 mps 753 mmHg 55%
    14:00 +10°C° 0 mm 4 mps 753 mmHg 59%
    15:00 +8°C° 0 mm 4 mps 754 mmHg 62%
    16:00 +8°C° 0 mm 4 mps 754 mmHg 65%
    17:00 +7°C° 0 mm 3 mps 755 mmHg 71%
    18:00 +5°C° 0 mm 3 mps 755 mmHg 77%
    19:00 +4°C° 0 mm 3 mps 756 mmHg 82%
    20:00 +4°C° 0 mm 3 mps 756 mmHg 84%
    21:00 +4°C° 0 mm 2 mps 756 mmHg 86%
    22:00 +4°C° 0 mm 2 mps 757 mmHg 88%
    23:00 +4°C° 0 mm 2 mps 757 mmHg 89%
    Show more